Regional Weather Roundup
Issued by NWS Newport/Morehead, NC

Current Version | Previous Version | Graphics & Text | Print | Product List | Glossary Off
Versions: 1 2 3 4 5 6 7 8 9 10 11 12 13 14 15 16 17 18 19 20 21 22 23 24 25 26 27 28 29 30 31 32 33 34 35 36 37 38 39 40 41 42 43 44 45 46 47 48 49 50

000
ASUS42 KMHX 031124
RWRMHX
WEATHER ROUNDUP FOR EASTERN NORTH CAROLINA
NATIONAL WEATHER SERVICE NEWPORT/MOREHEAD CITY NC
700 AM EDT SUN MAY 03 2015

NOTE: "FAIR" INDICATES FEW OR NO CLOUDS BELOW 12,000 FEET
WITH NO SIGNIFICANT WEATHER AND/OR OBSTRUCTIONS TO VISIBILITY

NCZ015>017-031-032-045>047-102-103-031200-
NORTH COAST

CITY           SKY/WX    TMP DP  RH WIND       PRES   REMARKS
EDENTON        CLEAR     57  53  87 W5        30.14R
ELIZABETH CITY CLEAR     51  49  92 SW7       30.13R
KITTY HAWK     SUNNY     56  53  91 W5        30.12R
MANTEO         CLEAR     55  51  87 W6        30.14R

$$

NCZ045>047-081-094-103-104-031200-
CENTRAL COAST

CITY           SKY/WX    TMP DP  RH WIND       PRES   REMARKS
FRISCO         CLEAR     53  53 100 W5        30.13R
SWANQUARTER      N/A     59 N/A N/A W3        30.12R

$$

NCZ095-097-098-100-101-031200-
SOUTHERN COAST

CITY           SKY/WX    TMP DP  RH WIND       PRES   REMARKS
BEAUFORT       CLEAR     52  51  97 CALM      30.14R
CEDAR ISLAND     N/A     61 N/A N/A W2G8      30.18R
JACKSONVILLE   PTCLDY    48  46  93 W3        30.15R FOG
PINEY ISLAND   SUNNY    N/A N/A N/A W3        30.14R
WILMINGTON     CLEAR     49  48  97 CALM      30.15R FOG


$$

NCZ011>013-027>030-043-044-078>080-089-090>093-098-031200-
COASTAL PLAIN

CITY           SKY/WX    TMP DP  RH WIND       PRES   REMARKS
AHOSKIE        CLEAR     46  45  97 CALM      30.15R
CLINTON        CLEAR     48  48 100 CALM      30.16R
ELIZABETHTOWN  CLEAR     51  50  97 CALM      30.15R
GOLDSBORO      CLEAR     48  46  94 SE2       30.13R
GREENVILLE     CLEAR     52  50  93 CALM      30.16R FOG
HAVELOCK       CLEAR     47  45  93 CALM      30.15R
KENANSVILLE    CLEAR     45  44  99 CALM      30.16R
KINSTON        CLEAR     46  46 100 CALM      30.16R FOG
NEW BERN       CLEAR     50  46  86 CALM      30.16R
RICHLANDS      MOCLDY    46  43  87 CALM      30.17R
ROCKY MOUNT    CLEAR     48  47  96 CALM      30.15R FOG
WASHINGTON     CLEAR     51  51  97 CALM      30.16R
WHITEVILLE     CLOUDY    50  49  97 CALM      30.15R FOG

$$

AMZ130-135-150-152-154-156-158-170-250-252-270-ANZ085-086-088-633-658-670-031200-
MARINE OBSERVATIONS

STATION/POSITION TIME  TEMP    WIND        PRES    WAVE   SWELL
                       AIR SEA DIR/SP/G            HT/PER HT/PER
                 (UTC) (F)     (DEG/KT/KT) (MB)    (FT/S) (FT/S)
CHESAPEAKE LIGHT 1100   56     250/ 10/ 10 1020.2
64 E VA BEACH    1050   55 56  230/  4/  6 1019.4    6/11   7/11
DUCK             1100   58 53  260/  8/  9 1019.0
2 E DUCK         1011      54                N/A     5/11   3/11
OREGON INLET     1100   56 56  250/  6/  7 1020.2
13E OREGON INLT  1100      50                N/A     6/11   5/11
HATTERAS CG      1100   60 60  270/  5/  5 1019.9
DIAMOND BUOY     1050   57     300/  2/  4 1020.2    5/11   5/11
CAPE LOOKOUT     1100   62     280/  4/  4 1020.4
BEAUFORT LAB     1100   60 62   CALM  /  1 1019.8
27 SE WRIGHTSVLE 1100   64 71  320/  4/  6   N/A
5 SE WRIGHTSVLE  1008   63 66  310/  4/  6 1020.1
225 S CAPE HAT   1050   66 69  350/ 14/ 17 1020.1    9/11   8/11
41 SE CHARLESTON 1050   69 72  280/  4/  6 1020.2    3/11   3/11

$$


USA.gov is the U.S. government's official web portal to all federal, state and local government web resources and services.